This is the latest recevied weather packets stored in our database for station/object VK2OB. If no packets are shown the sender has not sent any weather packets the latest 10 day(s).
| Time | Temp. | Humidity | Pressure | Rain* | Wind** | Luminosity | Snow |
|---|---|---|---|---|---|---|---|
| 1788156434 | 69° F | 40% | 771.4 mmHg | 0 in | - | - | - |
| 1788156135 | 69° F | 38% | 771.4 mmHg | 0 in | - | - | - |
| 1788155537 | 69° F | 36% | 771.4 mmHg | 0 in | - | - | - |
| 1788155238 | 71° F | 34% | 771.4 mmHg | 0 in | - | - | - |
| 1788154340 | 74° F | 34% | 771.4 mmHg | 0 in | - | - | - |
| 1788154041 | 74° F | 33% | 771.4 mmHg | 0 in | - | - | - |
| 1788153741 | 75° F | 32% | 771.4 mmHg | 0 in | - | - | - |
| 1788152845 | 75° F | 32% | 771.4 mmHg | 0 in | - | - | - |
| 1788152546 | 75° F | 31% | 771.4 mmHg | 0 in | - | - | - |
| 1788152247 | 75° F | 33% | 771.4 mmHg | 0 in | - | - | - |
| 1788151948 | 74° F | 33% | 771.4 mmHg | 0 in | - | - | - |
| 1788151349 | 75° F | 33% | 771.4 mmHg | 0 in | - | - | - |
| 1788151051 | 76° F | 31% | 771.4 mmHg | 0 in | - | - | - |
| 1788150154 | 75° F | 33% | 771.4 mmHg | 0 in | - | - | - |
| 1788149556 | 75° F | 32% | 771.6 mmHg | 0 in | - | - | - |
| 1788148956 | 78° F | 33% | 771.6 mmHg | 0 in | - | - | - |
| 1788147458 | 77° F | 34% | 771.8 mmHg | 0 in | - | - | - |
| 1788147160 | 77° F | 35% | 771.8 mmHg | 0 in | - | - | - |
| 1788146562 | 75° F | 38% | 771.9 mmHg | 0 in | - | - | - |
| 1788145964 | 76° F | 37% | 772 mmHg | 0 in | - | - | - |
| 1788145664 | 75° F | 36% | 772.1 mmHg | 0 in | - | - | - |
| 1788144466 | 76° F | 36% | 772.4 mmHg | 0 in | - | - | - |
| 1788144166 | 76° F | 35% | 772.5 mmHg | 0 in | - | - | - |
| 1788142971 | 76° F | 39% | 772.7 mmHg | 0 in | - | - | - |
| 1788142672 | 74° F | 42% | 772.7 mmHg | 0 in | - | - | - |
* Rain latest hour (hover to see other rain measurements)
** Current wind speed in m/s (hover to see current wind gust speed)